TimeAKDT,TemperatureF,Dew PointF,Humidity,Sea Level PressureIn,VisibilityMPH,Wind Direction,Wind SpeedMPH,Gust SpeedMPH,PrecipitationIn,Events,Conditions,WindDirDegrees,DateUTC
12:53 AM,1.9,-2.0,83,29.69,10.0,SSE,8.1,-,N/A,,Mostly Cloudy,150,2013-05-15 08:53:00
1:53 AM,-0.0,-4.0,83,29.68,10.0,SE,6.9,-,N/A,,Scattered Clouds,130,2013-05-15 09:53:00
2:53 AM,-2.0,-6.0,83,29.68,10.0,ESE,6.9,-,N/A,,Scattered Clouds,120,2013-05-15 10:53:00
3:53 AM,-0.0,-5.1,79,29.67,10.0,ESE,6.9,-,N/A,,Mostly Cloudy,120,2013-05-15 11:53:00
4:53 AM,-2.0,-7.1,79,29.66,10.0,East,6.9,-,N/A,,Mostly Cloudy,100,2013-05-15 12:53:00
5:53 AM,-2.0,-7.1,79,29.66,10.0,SE,4.6,-,N/A,,Mostly Cloudy,130,2013-05-15 13:53:00
6:53 AM,-0.0,-6.0,76,29.66,10.0,Calm,Calm,-,N/A,,Clear,0,2013-05-15 14:53:00
7:53 AM,-0.0,-5.1,79,29.66,10.0,Calm,Calm,-,N/A,,Scattered Clouds,0,2013-05-15 15:53:00
8:53 AM,3.0,-2.9,76,29.66,10.0,Calm,Calm,-,N/A,,Clear,0,2013-05-15 16:53:00
9:53 AM,5.0,-0.0,80,29.65,10.0,ESE,3.5,-,N/A,,Scattered Clouds,110,2013-05-15 17:53:00
10:53 AM,10.0,3.9,76,29.66,10.0,Calm,Calm,-,N/A,,Partly Cloudy,0,2013-05-15 18:53:00
11:53 AM,12.9,7.0,77,29.66,10.0,East,6.9,-,N/A,,Partly Cloudy,90,2013-05-15 19:53:00
12:53 PM,14.0,9.0,80,29.65,10.0,East,6.9,-,N/A,,Clear,90,2013-05-15 20:53:00
1:53 PM,15.1,8.1,74,29.66,10.0,East,9.2,-,N/A,,Clear,90,2013-05-15 21:53:00
2:53 PM,14.0,8.1,77,29.66,10.0,East,9.2,-,N/A,,Clear,90,2013-05-15 22:53:00
3:53 PM,15.1,10.0,80,29.66,10.0,ESE,10.4,-,N/A,,Clear,110,2013-05-15 23:53:00
4:53 PM,16.0,10.0,77,29.66,10.0,East,8.1,-,N/A,,Clear,100,2013-05-16 00:53:00
5:53 PM,17.1,10.9,77,29.66,10.0,ESE,9.2,-,N/A,,Scattered Clouds,110,2013-05-16 01:53:00
6:53 PM,17.1,12.9,84,29.65,10.0,ESE,9.2,-,N/A,,Scattered Clouds,110,2013-05-16 02:53:00
7:53 PM,16.0,12.0,84,29.65,10.0,East,8.1,-,N/A,,Scattered Clouds,100,2013-05-16 03:53:00
8:53 PM,15.1,10.9,84,29.64,10.0,East,9.2,-,N/A,,Scattered Clouds,100,2013-05-16 04:53:00
9:53 PM,14.0,10.9,88,29.63,10.0,East,9.2,-,N/A,,Overcast,90,2013-05-16 05:53:00
10:53 PM,12.0,9.0,88,29.62,10.0,East,10.4,-,N/A,,Mostly Cloudy,100,2013-05-16 06:53:00
11:53 PM,10.0,7.0,87,29.61,10.0,East,11.5,-,N/A,,Mostly Cloudy,80,2013-05-16 07:53:00